Weather History for Bow Valley, AB

Change the Weather History Date:

Sunday, August 18, 2013

  Actual Average Record
Temperature  
Mean Temperature 64 °F -  
Max Temperature 76 °F - - ()
Min Temperature 52 °F - - ()
Degree Days  
Heating Degree Days 1    
Growing Degree Days 14 (Base 50)    
Moisture  
Dew Point 42 °F    
Average Humidity 45    
Maximum Humidity 73    
Minimum Humidity 15    
Precipitation  
Precipitation 0.00 in - - ()
Sea Level Pressure  
Sea Level Pressure 29.87 in    
Wind  
Wind Speed 6 mph ()    
Max Wind Speed 13 mph    
Max Gust Speed 25 mph    
T = Trace of Precipitation, MM = Missing Value Source: Averaged Metar Reports

Daily Weather History Graph

Daily Weather History Graph

Search for Another Location

Airport:

Trip Planner

Search our weather history database for the weather conditions in past years. The results will help you decide how hot, cold, wet, or windy it might be!

Date:

Astronomy

Aug. 18, 2013 Rise Set
Actual Time 6:32 AM MDT 8:54 PM MDT
Civil Twilight 5:55 AM MDT 9:31 PM MDT
Nautical Twilight 5:09 AM MDT 10:16 PM MDT
Astronomical Twilight 4:15 AM MDT 11:10 PM MDT
Moon 7:09 PM MDT (8/18) 3:36 AM MDT (8/18)
Length of Visible Light 15h 35m
Length of Day
14h 22m
Waxing Gibbous, 92% of the Moon is Illuminated
Aug 18
Waxing Gibbous
Aug 20
Full
Aug 28
Last Quarter
Sep 5
New
Sep 12
First Quarter

Hourly Weather History & Observations

Time (MDT) Temp. Dew Point Humidity Pressure Visibility Wind Dir Wind Speed Gust Speed Precip Events Conditions
12:00 AM 60 °F 46 °F 49% 29.89 in - SW 5.8 mph - -  
12:00 AM 60.1 °F 45.7 °F 59% 29.89 in - SW 5.8 mph - N/A   Unknown
1:00 AM 59.2 °F 45.1 °F 60% 29.90 in - WSW 5.8 mph - N/A   Unknown
2:00 AM 56.3 °F 44.6 °F 65% 29.90 in - WSW 2.3 mph - N/A   Unknown
3:00 AM 56.7 °F 44.6 °F 64% 29.90 in - WSW 6.9 mph - N/A   Unknown
4:00 AM 55.9 °F 45.0 °F 67% 29.91 in - WSW 8.1 mph - N/A   Unknown
5:00 AM 54.0 °F 45.0 °F 72% 29.92 in - WSW 8.1 mph - N/A   Unknown
6:00 AM 53 °F 45 °F 65% 29.94 in - WSW 8.1 mph - -  
6:00 AM 53.2 °F 44.8 °F 73% 29.94 in - WSW 8.1 mph - N/A   Unknown
7:00 AM 54.1 °F 45.1 °F 72% 29.94 in - WSW 6.9 mph - N/A   Unknown
8:00 AM 56.5 °F 46.0 °F 68% 29.94 in - WSW 6.9 mph - N/A   Unknown
9:00 AM 60.1 °F 45.9 °F 59% 29.93 in - West 8.1 mph - N/A   Unknown
10:00 AM 64.4 °F 46.6 °F 52% 29.90 in - WSW 8.1 mph - N/A   Unknown
11:00 AM 67.6 °F 45.1 °F 44% 29.89 in - West 6.9 mph - N/A   Unknown
12:00 PM 71 °F 42 °F 24% 29.87 in - West 8.1 mph - -  
12:00 PM 71.1 °F 42.3 °F 35% 29.87 in - West 8.1 mph - N/A   Unknown
1:00 PM 72.0 °F 39.0 °F 30% 29.86 in - WSW 6.9 mph - N/A   Unknown
2:00 PM 75.4 °F 41.0 °F 29% 29.83 in - WSW 5.8 mph - N/A   Unknown
3:00 PM 75.2 °F 40.3 °F 28% 29.83 in - WSW 5.8 mph - N/A   Unknown
4:00 PM 75.4 °F 36.7 °F 25% 29.82 in - West 12.7 mph 25.3 mph N/A   Unknown
5:00 PM 76.1 °F 36.3 °F 24% 29.80 in - WSW 8.1 mph 18.4 mph N/A   Unknown
6:00 PM 75 °F 36 °F 15% 29.79 in - West 11.5 mph - -  
6:00 PM 75.2 °F 36.1 °F 24% 29.79 in - West 11.5 mph - N/A   Unknown
7:00 PM 73.0 °F 37.6 °F 28% 29.80 in - West 10.4 mph - N/A   Unknown
8:00 PM 69.6 °F 36.9 °F 30% 29.79 in - WSW 4.6 mph - N/A   Unknown
9:00 PM 68.0 °F 36.5 °F 31% 29.80 in - WSW 5.8 mph - N/A   Unknown
10:00 PM 66.9 °F 36.7 °F 33% 29.80 in - WSW 8.1 mph - N/A   Unknown
11:00 PM 66.4 °F 37.4 °F 34% 29.80 in - WSW 6.9 mph - N/A   Unknown